period_start,C,m1,H,J0,J1,J2,J3,J4,J5,JA,JB,JC,JD,JJ,JK,JN,#
2014-01-07 00:00:02,0.08,0.45,0.00,26.39,27.85,30.57,5.88,29.58,1027.85,2038.02,3328.03,3200.85,3474.28,349.98,324.02,3.82,0000 0000 0000 0000 000000
2014-01-07 00:01:03,0.09,0.45,0.00,26.39,27.85,30.57,5.92,29.75,1027.85,2038.02,3327.62,3200.43,3474.10,349.79,323.13,3.82,0000 0000 0000 0000 000000
2014-01-07 00:02:03,0.18,0.46,0.00,26.40,27.85,30.56,6.07,29.71,1027.85,2038.03,3327.26,3200.17,3474.03,350.51,324.30,3.83,0000 0000 0000 0000 000000
2014-01-07 00:03:03,0.10,0.46,0.00,26.39,27.85,30.57,5.89,29.63,1027.85,2038.02,3327.09,3200.06,3473.91,348.22,322.19,3.84,0000 0000 0000 0000 000000
2014-01-07 00:04:03,0.05,0.46,0.00,26.38,27.86,30.57,5.92,29.54,1027.85,2038.00,3326.98,3199.99,3473.52,349.89,323.75,3.84,0000 0000 0000 0000 000000
2014-01-07 00:05:03,0.07,0.46,0.00,26.38,27.87,30.58,6.10,29.71,1027.85,2038.00,3326.72,3199.92,3473.19,349.78,323.65,3.85,0000 0000 0000 0000 000000
2014-01-07 00:06:03,0.10,0.46,0.00,26.39,27.87,30.59,5.91,29.79,1027.85,2038.01,3326.29,3199.57,3473.07,349.96,323.81,3.85,0000 0000 0000 0000 000000
2014-01-07 00:07:04,0.16,0.46,0.00,26.39,27.87,30.59,5.96,29.88,1027.85,2038.01,3326.10,3199.21,3473.01,350.50,324.31,3.86,0000 0000 0000 0000 000000
2014-01-07 00:08:04,0.09,0.46,0.00,26.42,27.87,30.59,5.83,29.58,1027.85,2038.02,3325.93,3199.07,3472.79,349.57,323.41,3.86,0000 0000 0000 0000 000000
2014-01-07 00:09:05,0.10,0.46,0.00,26.42,27.87,30.58,5.93,29.83,1027.85,2038.02,3325.45,3199.01,3472.35,349.73,323.32,3.87,0000 0000 0000 0000 000000
2014-01-07 00:10:05,0.11,0.46,0.00,26.43,27.87,30.60,6.05,29.83,1027.85,2038.00,3325.16,3198.93,3472.13,350.65,324.73,3.88,0000 0000 0000 0000 000000
2014-01-07 00:11:05,0.07,0.46,0.00,26.45,27.87,30.60,5.93,29.63,1027.85,2038.00,3324.91,3198.58,3472.04,350.07,323.84,3.88,0000 0000 0000 0000 000000
2014-01-07 00:12:05,0.13,0.46,0.00,26.44,27.88,30.57,6.09,29.88,1027.85,2038.00,3324.38,3198.22,3471.76,350.47,324.65,3.89,0000 0000 0000 0000 000000
2014-01-07 00:13:05,0.18,0.46,0.00,26.43,27.88,30.55,5.96,29.83,1027.85,2038.00,3324.13,3198.08,3471.35,349.73,323.56,3.89,0000 0000 0000 0000 000000
2014-01-07 00:14:06,0.10,0.46,0.00,26.45,27.89,30.57,5.91,29.42,1027.85,2038.01,3324.02,3198.02,3471.12,350.19,323.83,3.90,0000 0000 0000 0000 000000
2014-01-07 00:15:06,0.06,0.46,0.00,26.46,27.90,30.57,6.00,29.42,1027.85,2038.00,3323.73,3197.85,3471.01,350.44,324.18,3.91,0000 0000 0000 0000 000000
2014-01-07 00:16:06,0.10,0.46,0.00,26.44,27.90,30.57,5.99,29.75,1027.85,2038.00,3323.29,3197.45,3470.78,350.47,324.24,3.91,0000 0000 0000 0000 000000
2014-01-07 00:17:06,0.17,0.47,0.00,26.46,27.90,30.60,5.93,29.46,1027.85,2038.00,3323.09,3197.17,3470.38,349.17,323.00,3.92,0000 0000 0000 0000 000000
2014-01-07 00:18:07,0.14,0.47,0.00,26.47,27.90,30.59,6.03,29.46,1027.85,2038.00,3322.69,3197.05,3470.13,350.55,324.27,3.92,0000 0000 0000 0000 000000
2014-01-07 00:19:07,0.11,0.47,0.00,26.44,27.90,30.59,5.88,29.42,1027.85,2038.00,3322.28,3196.96,3470.03,349.13,322.98,3.93,0000 0000 0000 0000 000000
2014-01-07 00:20:07,0.10,0.47,0.00,26.45,27.90,30.63,6.07,29.63,1027.85,2038.00,3322.09,3196.54,3469.69,350.66,324.60,3.94,0000 0000 0000 0000 000000
2014-01-07 00:21:07,0.16,0.47,0.00,26.46,27.90,30.63,6.00,29.88,1027.85,2038.00,3321.70,3196.21,3469.28,350.55,324.22,3.94,0000 0000 0000 0000 000000
2014-01-07 00:22:08,0.16,0.47,0.00,26.45,27.91,30.63,6.02,29.75,1027.85,2038.00,3321.28,3196.07,3469.09,350.61,324.10,3.95,0000 0000 0000 0000 000000
2014-01-07 00:23:08,0.09,0.47,0.00,26.47,27.92,30.65,5.98,29.58,1027.85,2038.00,3321.09,3196.00,3468.98,350.27,324.01,3.95,0000 0000 0000 0000 000000
2014-01-07 00:24:08,0.07,0.47,0.00,26.46,27.92,30.63,5.84,29.50,1027.85,2038.00,3320.73,3195.63,3468.56,349.44,323.25,3.96,0000 0000 0000 0000 000000
2014-01-07 00:25:08,0.18,0.47,0.00,26.48,27.92,30.63,5.89,29.75,1027.86,2038.00,3320.30,3195.24,3468.22,350.15,323.88,3.96,0000 0000 0000 0000 000000
2014-01-07 00:26:08,0.16,0.47,0.00,26.48,27.92,30.63,6.02,29.63,1027.85,2038.00,3320.09,3195.08,3468.08,350.79,324.34,3.97,0000 0000 0000 0000 000000
2014-01-07 00:27:09,0.08,0.47,0.00,26.47,27.92,30.60,6.06,29.71,1027.85,2038.00,3319.78,3195.00,3467.93,350.39,324.11,3.98,0000 0000 0000 0000 000000
2014-01-07 00:28:09,0.08,0.47,0.00,26.48,27.92,30.62,5.89,29.54,1027.86,2038.00,3319.31,3194.70,3467.48,350.03,323.78,3.98,0000 0000 0000 0000 000000
2014-01-07 00:29:09,0.19,0.47,0.00,26.47,27.92,30.66,5.93,29.71,1027.87,2038.00,3319.11,3194.40,3467.19,349.92,323.69,3.99,0000 0000 0000 0000 000000
2014-01-07 00:30:10,0.12,0.48,0.00,26.48,27.93,30.66,6.06,29.58,1027.85,2038.00,3319.01,3194.17,3467.07,350.52,324.21,3.99,0000 0000 0000 0000 000000
2014-01-07 00:31:10,0.07,0.48,0.00,26.50,27.94,30.66,6.07,29.67,1027.85,2037.99,3318.59,3194.06,3467.02,350.11,323.82,4.00,0000 0000 0000 0000 000000
2014-01-07 00:32:10,0.07,0.48,0.00,26.50,27.95,30.66,5.91,29.50,1027.85,2037.98,3318.24,3194.02,3466.92,349.29,323.06,4.01,0000 0000 0000 0000 000000
2014-01-07 00:33:11,0.06,0.48,0.00,26.47,27.95,30.67,5.99,29.58,1027.85,2037.98,3318.07,3193.99,3466.59,350.06,323.71,4.01,0000 0000 0000 0000 000000
2014-01-07 00:34:11,0.07,0.48,0.00,26.48,27.95,30.64,6.06,29.67,1027.85,2037.99,3318.00,3193.83,3466.25,349.42,323.40,4.02,0000 0000 0000 0000 000000
2014-01-07 00:35:11,0.09,0.48,0.00,26.48,27.95,30.64,5.85,29.54,1027.85,2037.99,3317.78,3193.43,3466.09,349.23,323.03,4.02,0000 0000 0000 0000 000000
2014-01-07 00:36:11,0.14,0.48,0.00,26.51,27.95,30.65,5.80,29.58,1027.85,2037.99,3317.36,3193.16,3466.02,349.40,323.16,4.03,0000 0000 0000 0000 000000
2014-01-07 00:37:12,0.12,0.48,0.00,26.52,27.95,30.67,5.92,29.63,1027.85,2037.99,3317.12,3193.05,3465.91,350.10,323.80,4.03,0000 0000 0000 0000 000000
2014-01-07 00:38:12,0.06,0.48,0.00,26.51,27.95,30.67,5.99,29.71,1027.87,2037.99,3317.03,3193.01,3465.48,349.56,323.31,4.04,0000 0000 0000 0000 000000
2014-01-07 00:39:12,0.08,0.48,0.00,26.51,27.95,30.69,6.08,29.83,1027.89,2037.99,3316.75,3192.91,3465.17,350.18,323.90,4.05,0000 0000 0000 0000 000000
2014-01-07 00:40:13,0.09,0.48,0.00,26.50,27.97,30.69,5.85,29.83,1027.89,2037.96,3316.32,3192.51,3465.05,350.10,323.82,4.05,0000 0000 0000 0000 000000
2014-01-07 00:41:13,0.14,0.48,0.00,26.50,27.97,30.70,5.83,29.58,1027.86,2037.94,3316.11,3192.20,3465.01,350.31,324.00,4.06,0000 0000 0000 0000 000000
2014-01-07 00:42:13,0.08,0.48,0.00,26.50,27.97,30.71,5.96,29.67,1027.86,2037.97,3316.04,3192.07,3464.95,349.45,323.21,4.06,0000 0000 0000 0000 000000
2014-01-07 00:43:13,0.07,0.48,0.00,26.52,27.97,30.71,5.81,29.71,1027.89,2037.99,3315.83,3192.02,3464.65,349.26,323.03,4.07,0000 0000 0000 0000 000000
2014-01-07 00:44:14,0.08,0.48,0.00,26.52,27.97,30.72,5.81,29.58,1027.89,2037.96,3315.35,3191.99,3464.25,350.32,324.01,4.08,0000 0000 0000 0000 000000
2014-01-07 00:45:14,0.10,0.48,0.00,26.52,27.97,30.71,6.02,29.46,1027.87,2037.94,3315.12,3191.85,3464.09,349.71,323.43,4.08,0000 0000 0000 0000 000000
2014-01-07 00:46:14,0.06,0.48,0.00,26.52,27.97,30.71,5.86,29.67,1027.88,2037.88,3314.98,3191.49,3464.02,349.80,323.52,4.09,0000 0000 0000 0000 000000
2014-01-07 00:47:14,0.08,0.48,0.00,26.55,27.97,30.70,6.05,29.58,1027.88,2037.85,3314.57,3191.19,3463.84,350.43,324.08,4.09,0000 0000 0000 0000 000000
2014-01-07 00:48:15,0.11,0.49,0.00,26.54,27.98,30.71,6.05,29.63,1027.86,2037.84,3314.22,3191.07,3463.42,350.68,324.09,4.10,0000 0000 0000 0000 000000
2014-01-07 00:49:15,0.09,0.49,0.00,26.54,28.00,30.71,6.07,29.38,1027.86,2037.75,3314.07,3191.01,3463.17,350.53,324.18,4.10,0000 0000 0000 0000 000000
2014-01-07 00:50:15,0.01,0.49,0.00,26.52,28.00,30.73,5.98,29.50,1027.88,2037.69,3313.88,3190.82,3463.06,349.86,323.13,4.11,0000 0000 0000 0000 000000
2014-01-07 00:51:15,0.06,0.49,0.00,26.54,28.00,30.72,5.95,29.58,1027.88,2037.68,3313.47,3190.42,3463.02,350.10,323.72,4.12,0000 0000 0000 0000 000000
2014-01-07 00:52:16,0.11,0.49,0.00,26.55,28.00,30.71,5.93,29.67,1027.85,2037.59,3313.19,3190.16,3462.86,349.77,323.66,4.12,0000 0000 0000 0000 000000
2014-01-07 00:53:16,0.05,0.49,0.00,26.51,28.00,30.71,6.00,29.46,1027.87,2037.55,3313.07,3190.05,3462.41,350.92,324.37,4.13,0000 0000 0000 0000 000000
2014-01-07 00:54:16,0.01,0.49,0.00,26.53,28.00,30.73,5.82,29.67,1027.87,2037.38,3312.92,3190.00,3462.16,349.70,323.51,4.13,0000 0000 0000 0000 000000
2014-01-07 00:55:16,-0.02,0.49,0.00,26.57,28.00,30.73,5.93,29.71,1027.87,2037.34,3312.46,3189.97,3462.06,350.00,324.00,4.14,0000 0000 0000 0000 000000
2014-01-07 00:56:17,0.04,0.49,0.00,26.56,28.00,30.72,5.93,29.33,1027.89,2037.29,3312.17,3189.75,3461.98,349.91,323.57,4.15,0000 0000 0000 0000 000000
2014-01-07 00:57:17,0.06,0.49,0.00,26.54,28.00,30.75,5.91,29.75,1027.87,2037.27,3312.06,3189.38,3461.85,349.86,323.55,4.15,0000 0000 0000 0000 000000
2014-01-07 00:58:17,0.11,0.49,0.00,26.55,28.02,30.74,5.91,29.38,1027.86,2037.25,3312.01,3189.15,3461.42,350.60,324.53,4.16,0000 0000 0000 0000 000000
2014-01-07 00:59:17,0.09,0.49,0.00,26.56,28.02,30.71,5.77,29.46,1027.87,2037.36,3311.84,3189.05,3461.17,349.31,323.13,4.16,0000 0000 0000 0000 000000
2014-01-07 01:00:18,0.14,0.49,0.00,26.57,28.02,30.74,5.89,29.58,1027.86,2037.36,3311.38,3189.01,3461.06,349.94,323.59,4.17,0000 0000 0000 0000 000000
2014-01-07 01:01:18,0.09,0.49,0.00,26.58,28.02,30.74,5.92,29.63,1027.85,2037.23,3311.13,3188.93,3461.01,350.36,323.99,4.18,0000 0000 0000 0000 000000
2014-01-07 01:02:18,-0.04,0.49,0.00,26.60,28.02,30.72,6.03,29.54,1027.89,2037.18,3311.02,3188.63,3460.87,350.56,324.14,4.18,0000 0000 0000 0000 000000
2014-01-07 01:03:18,0.05,0.49,0.00,26.59,28.02,30.75,5.94,29.50,1027.89,2037.14,3310.73,3188.33,3460.48,350.13,323.75,4.19,0000 0000 0000 0000 000000
2014-01-07 01:04:19,0.14,0.49,0.00,26.58,28.02,30.74,5.96,29.67,1027.85,2037.12,3310.31,3188.13,3460.20,350.59,324.18,4.19,0000 0000 0000 0000 000000
2014-01-07 01:05:19,0.10,0.49,0.00,26.57,28.02,30.74,5.83,29.58,1027.86,2037.10,3310.11,3188.05,3460.07,349.03,322.75,4.20,0000 0000 0000 0000 000000
2014-01-07 01:06:19,0.04,0.49,0.00,26.58,28.03,30.76,6.08,29.71,1027.86,2037.07,3309.98,3188.01,3460.01,350.77,324.35,4.20,0000 0000 0000 0000 000000
2014-01-07 01:07:20,0.01,0.49,0.00,26.59,28.04,30.75,5.92,29.71,1027.87,2037.06,3309.69,3187.98,3459.97,350.16,323.92,4.21,0000 0000 0000 0000 000000
2014-01-07 01:08:20,0.04,0.49,0.00,26.58,28.05,30.74,6.05,29.75,1027.87,2037.09,3309.30,3187.83,3459.75,350.53,324.32,4.22,0000 0000 0000 0000 000000
2014-01-07 01:09:20,0.16,0.49,0.00,26.58,28.05,30.75,6.02,29.67,1027.85,2037.10,3309.12,3187.43,3459.32,350.12,323.74,4.22,0000 0000 0000 0000 000000
2014-01-07 01:10:20,0.17,0.49,0.00,26.58,28.05,30.75,5.97,29.67,1027.85,2037.08,3309.03,3187.19,3459.12,349.50,322.93,4.23,0000 0000 0000 0000 000000
2014-01-07 01:11:21,0.06,0.49,0.00,26.57,28.05,30.74,5.95,29.25,1027.85,2037.07,3308.84,3187.07,3459.03,350.43,324.21,4.23,0000 0000 0000 0000 000000
2014-01-07 01:12:21,0.07,0.50,0.00,26.58,28.05,30.77,5.79,29.50,1027.85,2037.07,3308.40,3187.01,3458.99,349.80,323.45,4.24,0000 0000 0000 0000 000000
2014-01-07 01:13:21,0.07,0.50,0.00,26.59,28.05,30.78,5.97,29.67,1027.85,2037.07,3308.14,3186.98,3458.88,350.01,323.62,4.25,0000 0000 0000 0000 000000
2014-01-07 01:14:22,0.05,0.50,0.00,26.59,28.05,30.79,5.94,29.50,1027.86,2037.05,3308.05,3186.76,3458.49,350.08,323.97,4.25,0000 0000 0000 0000 000000
2014-01-07 01:15:22,0.08,0.50,0.00,26.60,28.05,30.78,5.90,29.58,1027.86,2037.02,3307.94,3186.39,3458.18,349.24,322.85,4.26,0000 0000 0000 0000 000000
2014-01-07 01:16:22,0.11,0.50,0.00,26.61,28.06,30.78,5.98,29.58,1027.86,2037.02,3307.53,3186.14,3458.06,350.36,324.17,4.26,0000 0000 0000 0000 000000
2014-01-07 01:17:23,0.11,0.50,0.00,26.59,28.07,30.79,5.92,29.42,1027.85,2037.02,3307.21,3186.05,3458.00,351.45,324.71,4.27,0000 0000 0000 0000 000000
2014-01-07 01:18:23,0.08,0.50,0.00,26.59,28.07,30.76,5.87,29.21,1027.86,2037.03,3307.07,3186.00,3457.88,349.64,323.41,4.27,0000 0000 0000 0000 000000
2014-01-07 01:19:23,0.06,0.50,0.00,26.59,28.07,30.77,5.94,29.42,1027.85,2037.02,3306.93,3185.96,3457.47,349.48,323.14,4.28,0000 0000 0000 0000 000000
2014-01-07 01:20:23,0.07,0.50,0.00,26.60,28.07,30.77,6.09,29.71,1027.85,2037.00,3306.51,3185.74,3457.18,350.51,324.08,4.29,0000 0000 0000 0000 000000
2014-01-07 01:21:24,0.14,0.50,0.00,26.59,28.07,30.79,5.97,29.71,1027.85,2037.00,3306.20,3185.31,3457.07,350.23,324.02,4.29,0000 0000 0000 0000 000000
2014-01-07 01:22:24,0.12,0.50,0.00,26.59,28.07,30.80,5.88,29.63,1027.85,2037.00,3306.06,3185.12,3457.00,349.94,323.57,4.30,0000 0000 0000 0000 000000
2014-01-07 01:23:24,0.06,0.50,0.00,26.61,28.07,30.80,6.06,29.75,1027.85,2037.00,3305.90,3185.04,3456.82,350.10,323.81,4.30,0000 0000 0000 0000 000000
2014-01-07 01:24:25,0.07,0.50,0.00,26.62,28.07,30.79,5.94,29.75,1027.85,2037.01,3305.53,3185.00,3456.45,350.35,323.91,4.31,0000 0000 0000 0000 000000
2014-01-07 01:25:25,0.11,0.50,0.00,26.61,28.08,30.80,5.91,29.58,1027.86,2037.00,3305.20,3184.93,3456.18,350.34,323.92,4.32,0000 0000 0000 0000 000000
2014-01-07 01:26:25,0.10,0.50,0.00,26.63,28.09,30.82,5.87,29.50,1027.85,2037.00,3305.07,3184.63,3456.07,350.07,323.65,4.32,0000 0000 0000 0000 000000
2014-01-07 01:27:25,0.09,0.50,0.00,26.62,28.10,30.80,5.92,29.54,1027.87,2037.00,3305.00,3184.29,3456.02,350.10,323.69,4.33,0000 0000 0000 0000 000000
2014-01-07 01:28:26,0.09,0.50,0.00,26.64,28.10,30.82,5.92,29.42,1027.85,2037.00,3304.73,3184.13,3455.97,350.52,324.42,4.33,0000 0000 0000 0000 000000
2014-01-07 01:29:26,0.08,0.50,0.00,26.62,28.10,30.82,6.01,29.58,1027.85,2037.00,3304.33,3184.05,3455.75,349.94,323.80,4.34,0000 0000 0000 0000 000000
2014-01-07 01:30:26,0.09,0.51,0.00,26.63,28.10,30.80,5.88,29.71,1027.85,2037.00,3304.12,3184.01,3455.34,350.38,323.92,4.35,0000 0000 0000 0000 000000
2014-01-07 01:31:27,0.08,0.51,0.00,26.64,28.10,30.83,5.71,29.58,1027.86,2037.00,3304.02,3183.96,3455.13,350.68,324.55,4.35,0000 0000 0000 0000 000000
2014-01-07 01:32:27,0.05,0.51,0.00,26.64,28.10,30.86,5.86,29.50,1027.86,2037.00,3303.88,3183.78,3455.04,349.57,323.17,4.36,0000 0000 0000 0000 000000
2014-01-07 01:33:27,0.09,0.51,0.00,26.64,28.10,30.84,5.99,29.54,1027.87,2037.00,3303.42,3183.38,3455.00,349.63,322.86,4.36,0000 0000 0000 0000 000000
2014-01-07 01:34:27,0.13,0.51,0.00,26.67,28.11,30.87,6.16,29.58,1027.87,2037.00,3303.15,3183.14,3454.94,350.78,324.34,4.37,0000 0000 0000 0000 000000
2014-01-07 01:35:28,0.09,0.51,0.00,26.66,28.12,30.84,5.76,29.54,1027.86,2037.00,3303.04,3183.05,3454.67,349.59,322.78,4.37,0000 0000 0000 0000 000000
2014-01-07 01:36:28,0.07,0.51,0.00,26.66,28.12,30.83,6.01,29.38,1027.85,2037.00,3302.82,3183.00,3454.26,349.84,323.41,4.38,0000 0000 0000 0000 000000
2014-01-07 01:37:28,0.09,0.51,0.00,26.64,28.12,30.83,5.78,29.71,1027.87,2037.00,3302.38,3182.73,3454.09,349.44,323.06,4.39,0000 0000 0000 0000 000000
2014-01-07 01:38:28,0.14,0.51,0.00,26.65,28.12,30.85,5.98,29.71,1027.87,2037.00,3302.13,3182.31,3454.03,349.64,323.23,4.39,0000 0000 0000 0000 000000
2014-01-07 01:39:28,0.12,0.51,0.00,26.66,28.12,30.85,5.94,29.88,1027.88,2037.00,3301.95,3182.12,3453.80,350.24,323.86,4.40,0000 0000 0000 0000 000000
2014-01-07 01:40:29,0.11,0.51,0.00,26.66,28.12,30.88,5.85,29.50,1027.87,2037.00,3301.48,3182.04,3453.35,349.93,323.49,4.40,0000 0000 0000 0000 000000
2014-01-07 01:41:29,0.12,0.51,0.00,26.67,28.12,30.85,6.00,29.67,1027.86,2037.00,3301.18,3182.01,3453.13,350.13,323.66,4.41,0000 0000 0000 0000 000000
2014-01-07 01:42:29,0.07,0.51,0.00,26.67,28.12,30.84,6.03,29.58,1027.85,2037.00,3301.07,3181.97,3453.05,350.30,323.82,4.42,0000 0000 0000 0000 000000
2014-01-07 01:43:30,0.04,0.51,0.00,26.66,28.13,30.86,6.03,29.58,1027.86,2037.00,3301.02,3181.79,3453.01,349.92,323.47,4.42,0000 0000 0000 0000 000000
2014-01-07 01:44:30,0.06,0.51,0.00,26.65,28.14,30.86,5.77,29.54,1027.85,2037.00,3300.79,3181.42,3452.96,349.03,322.66,4.43,0000 0000 0000 0000 000000
2014-01-07 01:45:30,0.12,0.51,0.00,26.68,28.14,30.87,6.03,29.54,1027.85,2037.00,3300.35,3181.17,3452.63,350.13,323.66,4.43,0000 0000 0000 0000 000000
2014-01-07 01:46:31,0.14,0.52,0.00,26.67,28.15,30.85,5.89,29.58,1027.85,2037.00,3300.13,3181.06,3452.24,349.17,323.41,4.44,0000 0000 0000 0000 000000
2014-01-07 01:47:31,0.10,0.52,0.00,26.68,28.15,30.85,6.06,29.46,1027.87,2037.00,3300.02,3181.00,3452.07,350.25,323.77,4.44,0000 0000 0000 0000 000000
2014-01-07 01:48:31,0.05,0.52,0.00,26.68,28.15,30.87,5.93,29.46,1027.86,2037.00,3299.74,3180.84,3452.01,349.91,323.45,4.45,0000 0000 0000 0000 000000
2014-01-07 01:49:31,0.10,0.52,0.00,26.70,28.15,30.89,6.00,29.46,1027.87,2036.99,3299.31,3180.41,3451.76,350.42,323.90,4.46,0000 0000 0000 0000 000000
2014-01-07 01:50:32,0.15,0.52,0.00,26.70,28.15,30.84,5.87,29.29,1027.90,2036.98,3299.12,3180.15,3451.36,350.59,324.34,4.46,0000 0000 0000 0000 000000
2014-01-07 01:51:32,0.12,0.52,0.00,26.69,28.15,30.83,5.96,29.58,1027.89,2036.99,3299.03,3180.05,3451.13,348.94,322.55,4.47,0000 0000 0000 0000 000000
2014-01-07 01:52:32,0.06,0.52,0.00,26.70,28.15,30.85,5.90,29.67,1027.87,2036.94,3298.83,3180.01,3451.05,349.65,322.89,4.47,0000 0000 0000 0000 000000
2014-01-07 01:53:32,0.02,0.52,0.00,26.71,28.16,30.86,5.98,29.54,1027.88,2036.95,3298.43,3179.97,3451.02,349.99,323.73,4.48,0000 0000 0000 0000 000000
2014-01-07 01:54:33,0.05,0.52,0.00,26.70,28.17,30.87,5.87,29.71,1027.86,2036.97,3298.19,3179.93,3450.95,349.66,323.60,4.49,0000 0000 0000 0000 000000
2014-01-07 01:55:33,0.07,0.52,0.00,26.70,28.17,30.86,5.88,29.75,1027.87,2036.96,3298.07,3179.65,3450.64,349.50,323.05,4.49,0000 0000 0000 0000 000000
2014-01-07 01:56:33,0.13,0.52,0.00,26.72,28.17,30.87,5.93,29.58,1027.90,2036.98,3298.00,3179.28,3450.28,349.81,323.31,4.50,0000 0000 0000 0000 000000
2014-01-07 01:57:33,0.11,0.52,0.00,26.72,28.17,30.89,5.89,29.50,1027.89,2036.99,3297.73,3179.11,3450.10,350.24,323.72,4.50,0000 0000 0000 0000 000000
2014-01-07 01:58:34,0.10,0.52,0.00,26.72,28.17,30.89,5.94,29.67,1027.87,2036.98,3297.34,3179.04,3450.03,348.91,322.48,4.51,0000 0000 0000 0000 000000
2014-01-07 01:59:34,0.07,0.52,0.00,26.72,28.17,30.90,6.03,29.58,1027.88,2036.97,3297.12,3178.99,3450.01,349.84,323.33,4.52,0000 0000 0000 0000 000000
2014-01-07 02:00:34,0.02,0.52,0.00,26.70,28.17,30.87,5.73,29.54,1027.87,2036.97,3297.04,3178.97,3449.94,349.59,323.12,4.52,0000 0000 0000 0000 000000
2014-01-07 02:01:35,0.02,0.52,0.00,26.72,28.17,30.86,6.04,29.46,1027.89,2036.97,3297.00,3178.93,3449.76,350.59,323.93,4.53,0000 0000 0000 0000 000000
2014-01-07 02:02:35,0.04,0.52,0.00,26.71,28.17,30.85,5.99,29.46,1027.90,2036.97,3296.77,3178.68,3449.45,349.89,323.30,4.53,0000 0000 0000 0000 000000
2014-01-07 02:03:35,0.15,0.52,0.00,26.72,28.17,30.89,5.95,29.50,1027.85,2036.96,3296.33,3178.28,3449.16,350.45,323.87,4.54,0000 0000 0000 0000 000000
2014-01-07 02:04:35,0.15,0.52,0.00,26.72,28.18,30.88,5.87,29.42,1027.85,2036.95,3296.12,3178.10,3449.05,350.06,323.14,4.54,0000 0000 0000 0000 000000
2014-01-07 02:05:36,0.07,0.52,0.00,26.73,28.18,30.89,5.88,29.58,1027.86,2036.89,3295.99,3178.03,3448.97,350.15,323.46,4.55,0000 0000 0000 0000 000000
2014-01-07 02:06:36,-0.01,0.52,0.00,26.72,28.19,30.91,5.77,29.42,1027.88,2036.88,3295.88,3177.97,3448.80,350.12,323.60,4.56,0000 0000 0000 0000 000000
2014-01-07 02:07:36,0.08,0.53,0.00,26.72,28.20,30.89,5.96,29.67,1027.86,2036.92,3295.46,3177.88,3448.36,350.54,323.71,4.56,0000 0000 0000 0000 000000
2014-01-07 02:08:37,0.14,0.53,0.00,26.73,28.20,30.92,5.98,29.42,1027.85,2036.93,3295.19,3177.61,3448.14,351.01,324.41,4.57,0000 0000 0000 0000 000000
2014-01-07 02:09:37,0.14,0.53,0.00,26.73,28.20,30.90,5.99,29.50,1027.86,2036.94,3295.07,3177.31,3448.05,349.08,322.62,4.57,0000 0000 0000 0000 000000
2014-01-07 02:10:37,0.09,0.53,0.00,26.74,28.20,30.90,5.84,29.58,1027.85,2036.91,3294.96,3177.11,3448.01,349.99,323.26,4.58,0000 0000 0000 0000 000000
2014-01-07 02:11:37,0.04,0.53,0.00,26.75,28.20,30.91,5.97,29.46,1027.85,2036.87,3294.56,3177.04,3447.97,349.89,323.08,4.59,0000 0000 0000 0000 000000
2014-01-07 02:12:38,0.03,0.53,0.00,26.74,28.20,30.95,6.06,29.58,1027.86,2036.85,3294.22,3177.01,3447.76,349.36,322.67,4.59,0000 0000 0000 0000 000000
2014-01-07 02:13:38,0.06,0.53,0.00,26.72,28.20,30.92,5.82,29.75,1027.85,2036.77,3294.07,3176.92,3447.37,349.64,323.15,4.60,0000 0000 0000 0000 000000
2014-01-07 02:14:38,0.05,0.53,0.00,26.73,28.20,30.94,6.01,29.38,1027.86,2036.79,3293.97,3176.52,3447.13,350.94,324.35,4.60,0000 0000 0000 0000 000000
2014-01-07 02:15:39,0.11,0.53,0.00,26.75,28.21,30.93,5.94,29.25,1027.85,2036.74,3293.79,3176.21,3447.05,350.89,324.28,4.61,0000 0000 0000 0000 000000
2014-01-07 02:16:39,0.10,0.53,0.00,26.75,28.22,30.93,5.94,29.67,1027.86,2036.78,3293.40,3176.10,3447.01,349.29,322.80,4.61,0000 0000 0000 0000 000000
2014-01-07 02:17:39,0.06,0.53,0.00,26.75,28.22,30.92,5.94,29.58,1027.86,2036.73,3293.16,3176.04,3446.95,350.05,323.51,4.62,0000 0000 0000 0000 000000
2014-01-07 02:18:40,0.05,0.53,0.00,26.75,28.22,30.92,6.05,29.71,1027.85,2036.60,3293.05,3176.00,3446.53,350.69,324.09,4.63,0000 0000 0000 0000 000000
2014-01-07 02:19:40,-0.05,0.53,0.00,26.75,28.22,30.93,5.85,29.54,1027.86,2036.39,3292.88,3175.96,3446.19,349.87,323.05,4.63,0000 0000 0000 0000 000000
2014-01-07 02:20:40,-0.08,0.53,0.00,26.75,28.22,30.91,5.94,29.50,1027.86,2036.29,3292.58,3175.83,3446.07,350.04,323.51,4.64,0000 0000 0000 0000 000000
2014-01-07 02:21:41,0.06,0.53,0.00,26.74,28.22,30.93,5.95,29.71,1027.86,2036.40,3292.22,3175.42,3446.02,350.93,324.22,4.64,0000 0000 0000 0000 000000
2014-01-07 02:22:41,0.19,0.53,0.00,26.75,28.22,30.94,5.92,29.42,1027.87,2036.44,3292.08,3175.17,3445.96,349.99,323.22,4.65,0000 0000 0000 0000 000000
2014-01-07 02:23:41,0.09,0.53,0.00,26.75,28.22,30.96,5.90,29.58,1027.85,2036.28,3292.03,3175.07,3445.76,349.86,323.32,4.66,0000 0000 0000 0000 000000
2014-01-07 02:24:41,-0.02,0.53,0.00,26.78,28.22,30.97,6.03,29.58,1027.85,2036.26,3291.89,3175.01,3445.40,351.09,324.43,4.66,0000 0000 0000 0000 000000
2014-01-07 02:25:42,0.03,0.53,0.00,26.79,28.23,30.94,5.92,29.50,1027.86,2036.21,3291.49,3174.98,3445.15,349.72,323.16,4.67,0000 0000 0000 0000 000000
2014-01-07 02:26:42,0.06,0.53,0.00,26.77,28.24,30.95,5.91,29.67,1027.86,2036.16,3291.21,3174.91,3445.05,350.40,323.44,4.67,0000 0000 0000 0000 000000
2014-01-07 02:27:42,0.03,0.53,0.00,26.79,28.25,30.95,5.92,29.75,1027.86,2036.11,3291.07,3174.57,3445.01,348.92,322.04,4.68,0000 0000 0000 0000 000000
2014-01-07 02:28:43,0.05,0.53,0.00,26.80,28.25,30.96,5.88,29.79,1027.85,2036.08,3290.96,3174.25,3444.94,349.53,322.97,4.69,0000 0000 0000 0000 000000
2014-01-07 02:29:43,0.08,0.53,0.00,26.78,28.25,30.97,5.98,29.67,1027.85,2036.06,3290.59,3174.09,3444.57,351.00,324.34,4.69,0000 0000 0000 0000 000000
2014-01-07 02:30:43,0.10,0.53,0.00,26.77,28.25,30.95,5.98,29.54,1027.85,2036.04,3290.23,3174.03,3444.26,349.53,323.00,4.70,0000 0000 0000 0000 000000
2014-01-07 02:31:44,0.08,0.53,0.00,26.78,28.25,30.95,6.02,29.54,1027.85,2036.07,3290.08,3174.00,3444.15,350.50,323.83,4.70,0000 0000 0000 0000 000000
2014-01-07 02:32:44,0.04,0.53,0.00,26.81,28.25,30.98,5.99,29.46,1027.85,2036.06,3290.03,3173.98,3444.05,350.13,323.51,4.71,0000 0000 0000 0000 000000
2014-01-07 02:33:44,0.01,0.53,0.00,26.80,28.25,30.97,5.87,29.79,1027.86,2036.04,3289.91,3173.83,3444.01,349.40,323.22,4.71,0000 0000 0000 0000 000000
2014-01-07 02:34:44,0.08,0.54,0.00,26.79,28.25,30.94,6.01,29.67,1027.85,2036.03,3289.48,3173.41,3443.95,350.79,324.14,4.72,0000 0000 0000 0000 000000
2014-01-07 02:35:45,0.11,0.54,0.00,26.78,28.25,30.97,6.06,29.63,1027.86,2036.01,3289.20,3173.17,3443.69,349.27,322.74,4.73,0000 0000 0000 0000 000000
2014-01-07 02:36:45,0.11,0.54,0.00,26.78,28.25,30.95,5.89,29.75,1027.86,2036.03,3289.07,3173.06,3443.31,350.15,323.08,4.73,0000 0000 0000 0000 000000